owner,sensor,date,latitude,longitude,vertical_datum,sea_water_practical_salinity,qcFlag 
ENP,ioos.station.NOAA.NDBC:BWSF1:1,2019-11-01T00:00:00Z,25.1780,-80.4380,1.5,35.29,11111222 
ENP,ioos.station.NOAA.NDBC:BWSF1:1,2019-11-01T01:00:00Z,25.1780,-80.4380,1.5,35.31,11111222 
ENP,ioos.station.NOAA.NDBC:BWSF1:1,2019-11-01T03:00:00Z,25.1780,-80.4380,1.5,35.31,11111222 
ENP,ioos.station.NOAA.NDBC:BWSF1:1,2019-11-01T04:00:00Z,25.1780,-80.4380,1.5,35.3,11111222 
ENP,ioos.station.NOAA.NDBC:BWSF1:1,2019-11-01T05:00:00Z,25.1780,-80.4380,1.5,35.28,11111222 
ENP,ioos.station.NOAA.NDBC:BWSF1:1,2019-11-01T06:00:00Z,25.1780,-80.4380,1.5,35.31,11111222 
ENP,ioos.station.NOAA.NDBC:BWSF1:1,2019-11-01T07:00:00Z,25.1780,-80.4380,1.5,35.31,11111222 
ENP,ioos.station.NOAA.NDBC:BWSF1:1,2019-11-01T08:00:00Z,25.1780,-80.4380,1.5,35.31,11111222 
ENP,ioos.station.NOAA.NDBC:BWSF1:1,2019-11-01T09:00:00Z,25.1780,-80.4380,1.5,35.28,11111222 
ENP,ioos.station.NOAA.NDBC:BWSF1:1,2019-11-01T10:00:00Z,25.1780,-80.4380,1.5,35.3,11111222 
ENP,ioos.station.NOAA.NDBC:BWSF1:1,2019-11-01T11:00:00Z,25.1780,-80.4380,1.5,35.36,11111222 
ENP,ioos.station.NOAA.NDBC:BWSF1:1,2019-11-01T12:00:00Z,25.1780,-80.4380,1.5,35.41,11111222 
ENP,ioos.station.NOAA.NDBC:BWSF1:1,2019-11-01T14:00:00Z,25.1780,-80.4380,1.5,35.47,11111222 
ENP,ioos.station.NOAA.NDBC:BWSF1:1,2019-11-01T16:00:00Z,25.1780,-80.4380,1.5,35.57,11111222 
ENP,ioos.station.NOAA.NDBC:BWSF1:1,2019-11-01T17:00:00Z,25.1780,-80.4380,1.5,35.6,11111222 
ENP,ioos.station.NOAA.NDBC:BWSF1:1,2019-11-01T18:00:00Z,25.1780,-80.4380,1.5,35.75,11111222 
ENP,ioos.station.NOAA.NDBC:BWSF1:1,2019-11-01T19:00:00Z,25.1780,-80.4380,1.5,35.92,11111222 
ENP,ioos.station.NOAA.NDBC:BWSF1:1,2019-11-01T20:00:00Z,25.1780,-80.4380,1.5,35.9,11111222 
ENP,ioos.station.NOAA.NDBC:BWSF1:1,2019-11-01T22:00:00Z,25.1780,-80.4380,1.5,35.59,11111222 
ENP,ioos.station.NOAA.NDBC:BWSF1:1,2019-11-01T23:00:00Z,25.1780,-80.4380,1.5,35.47,11111222 
ENP,ioos.station.NOAA.NDBC:BWSF1:1,2019-11-02T01:00:00Z,25.1780,-80.4380,1.5,35.12,11111222 
ENP,ioos.station.NOAA.NDBC:BWSF1:1,2019-11-02T03:00:00Z,25.1780,-80.4380,1.5,34.94,11111222 
ENP,ioos.station.NOAA.NDBC:BWSF1:1,2019-11-02T04:00:00Z,25.1780,-80.4380,1.5,35.04,11111222 
ENP,ioos.station.NOAA.NDBC:BWSF1:1,2019-11-02T05:00:00Z,25.1780,-80.4380,1.5,35.11,11111222 
ENP,ioos.station.NOAA.NDBC:BWSF1:1,2019-11-02T06:00:00Z,25.1780,-80.4380,1.5,35.17,11111222 
ENP,ioos.station.NOAA.NDBC:BWSF1:1,2019-11-02T07:00:00Z,25.1780,-80.4380,1.5,35.14,11111222 
ENP,ioos.station.NOAA.NDBC:BWSF1:1,2019-11-02T08:00:00Z,25.1780,-80.4380,1.5,35.17,11111222 
ENP,ioos.station.NOAA.NDBC:BWSF1:1,2019-11-02T09:00:00Z,25.1780,-80.4380,1.5,35.31,11111222 
ENP,ioos.station.NOAA.NDBC:BWSF1:1,2019-11-02T10:00:00Z,25.1780,-80.4380,1.5,35.33,11111222 
ENP,ioos.station.NOAA.NDBC:BWSF1:1,2019-11-02T12:00:00Z,25.1780,-80.4380,1.5,35.4,11111222 
ENP,ioos.station.NOAA.NDBC:BWSF1:1,2019-11-02T13:00:00Z,25.1780,-80.4380,1.5,35.44,11111222 
ENP,ioos.station.NOAA.NDBC:BWSF1:1,2019-11-02T14:00:00Z,25.1780,-80.4380,1.5,35.48,11111222 
ENP,ioos.station.NOAA.NDBC:BWSF1:1,2019-11-02T15:00:00Z,25.1780,-80.4380,1.5,35.38,11111222 
ENP,ioos.station.NOAA.NDBC:BWSF1:1,2019-11-02T16:00:00Z,25.1780,-80.4380,1.5,35.4,11111222 
ENP,ioos.station.NOAA.NDBC:BWSF1:1,2019-11-02T17:00:00Z,25.1780,-80.4380,1.5,35.42,11111222 
ENP,ioos.station.NOAA.NDBC:BWSF1:1,2019-11-02T18:00:00Z,25.1780,-80.4380,1.5,35.42,11111222 
ENP,ioos.station.NOAA.NDBC:BWSF1:1,2019-11-02T19:00:00Z,25.1780,-80.4380,1.5,35.25,11111222 
ENP,ioos.station.NOAA.NDBC:BWSF1:1,2019-11-02T20:00:00Z,25.1780,-80.4380,1.5,35.09,11111222 
ENP,ioos.station.NOAA.NDBC:BWSF1:1,2019-11-02T21:00:00Z,25.1780,-80.4380,1.5,34.84,11111222 
ENP,ioos.station.NOAA.NDBC:BWSF1:1,2019-11-02T22:00:00Z,25.1780,-80.4380,1.5,34.8,11111222 
ENP,ioos.station.NOAA.NDBC:BWSF1:1,2019-11-02T23:00:00Z,25.1780,-80.4380,1.5,34.78,11111222 
ENP,ioos.station.NOAA.NDBC:BWSF1:1,2019-11-03T01:00:00Z,25.1780,-80.4380,1.5,34.83,11111222 
ENP,ioos.station.NOAA.NDBC:BWSF1:1,2019-11-03T03:00:00Z,25.1780,-80.4380,1.5,34.86,11111222 
ENP,ioos.station.NOAA.NDBC:BWSF1:1,2019-11-03T04:00:00Z,25.1780,-80.4380,1.5,34.84,11111222 
ENP,ioos.station.NOAA.NDBC:BWSF1:1,2019-11-03T06:00:00Z,25.1780,-80.4380,1.5,34.91,11111222 
ENP,ioos.station.NOAA.NDBC:BWSF1:1,2019-11-03T07:00:00Z,25.1780,-80.4380,1.5,34.94,11111222 
ENP,ioos.station.NOAA.NDBC:BWSF1:1,2019-11-03T08:00:00Z,25.1780,-80.4380,1.5,35.0,11111222 
ENP,ioos.station.NOAA.NDBC:BWSF1:1,2019-11-03T09:00:00Z,25.1780,-80.4380,1.5,35.06,11111222 
ENP,ioos.station.NOAA.NDBC:BWSF1:1,2019-11-03T10:00:00Z,25.1780,-80.4380,1.5,35.09,11111222 
ENP,ioos.station.NOAA.NDBC:BWSF1:1,2019-11-03T11:00:00Z,25.1780,-80.4380,1.5,35.06,11111222 
ENP,ioos.station.NOAA.NDBC:BWSF1:1,2019-11-03T12:00:00Z,25.1780,-80.4380,1.5,35.05,11111222 
ENP,ioos.station.NOAA.NDBC:BWSF1:1,2019-11-03T13:00:00Z,25.1780,-80.4380,1.5,35.12,11111222 
ENP,ioos.station.NOAA.NDBC:BWSF1:1,2019-11-03T14:00:00Z,25.1780,-80.4380,1.5,35.19,11111222 
ENP,ioos.station.NOAA.NDBC:BWSF1:1,2019-11-03T15:00:00Z,25.1780,-80.4380,1.5,35.27,11111222 
ENP,ioos.station.NOAA.NDBC:BWSF1:1,2019-11-03T16:00:00Z,25.1780,-80.4380,1.5,35.25,11111222 
ENP,ioos.station.NOAA.NDBC:BWSF1:1,2019-11-03T17:00:00Z,25.1780,-80.4380,1.5,35.25,11111222 
ENP,ioos.station.NOAA.NDBC:BWSF1:1,2019-11-03T18:00:00Z,25.1780,-80.4380,1.5,35.28,11111222 
ENP,ioos.station.NOAA.NDBC:BWSF1:1,2019-11-03T19:00:00Z,25.1780,-80.4380,1.5,35.34,11111222 
ENP,ioos.station.NOAA.NDBC:BWSF1:1,2019-11-03T20:00:00Z,25.1780,-80.4380,1.5,35.37,11111222 
ENP,ioos.station.NOAA.NDBC:BWSF1:1,2019-11-03T21:00:00Z,25.1780,-80.4380,1.5,35.38,11111222 
ENP,ioos.station.NOAA.NDBC:BWSF1:1,2019-11-03T22:00:00Z,25.1780,-80.4380,1.5,35.41,11111222 
ENP,ioos.station.NOAA.NDBC:BWSF1:1,2019-11-03T23:00:00Z,25.1780,-80.4380,1.5,35.4,11111222 
ENP,ioos.station.NOAA.NDBC:BWSF1:1,2019-11-04T01:00:00Z,25.1780,-80.4380,1.5,35.45,11111222 
ENP,ioos.station.NOAA.NDBC:BWSF1:1,2019-11-04T02:00:00Z,25.1780,-80.4380,1.5,35.46,11111222 
ENP,ioos.station.NOAA.NDBC:BWSF1:1,2019-11-04T04:00:00Z,25.1780,-80.4380,1.5,35.39,11111222 
ENP,ioos.station.NOAA.NDBC:BWSF1:1,2019-11-04T15:00:00Z,25.1780,-80.4380,1.5,35.2,11111222 
ENP,ioos.station.NOAA.NDBC:BWSF1:1,2019-11-04T16:00:00Z,25.1780,-80.4380,1.5,35.28,11111222 
ENP,ioos.station.NOAA.NDBC:BWSF1:1,2019-11-04T17:00:00Z,25.1780,-80.4380,1.5,35.4,11111222 
ENP,ioos.station.NOAA.NDBC:BWSF1:1,2019-11-04T18:00:00Z,25.1780,-80.4380,1.5,35.49,11111222 
ENP,ioos.station.NOAA.NDBC:BWSF1:1,2019-11-04T19:00:00Z,25.1780,-80.4380,1.5,35.52,11111222 
ENP,ioos.station.NOAA.NDBC:BWSF1:1,2019-11-04T20:00:00Z,25.1780,-80.4380,1.5,35.51,11111222 
ENP,ioos.station.NOAA.NDBC:BWSF1:1,2019-11-04T21:00:00Z,25.1780,-80.4380,1.5,35.44,11111222 
ENP,ioos.station.NOAA.NDBC:BWSF1:1,2019-11-04T22:00:00Z,25.1780,-80.4380,1.5,35.55,11111222 
ENP,ioos.station.NOAA.NDBC:BWSF1:1,2019-11-04T23:00:00Z,25.1780,-80.4380,1.5,35.69,11111222 
ENP,ioos.station.NOAA.NDBC:BWSF1:1,2019-11-05T00:00:00Z,25.1780,-80.4380,1.5,35.82,11111222 
ENP,ioos.station.NOAA.NDBC:BWSF1:1,2019-11-05T02:00:00Z,25.1780,-80.4380,1.5,35.76,11111222 
ENP,ioos.station.NOAA.NDBC:BWSF1:1,2019-11-05T04:00:00Z,25.1780,-80.4380,1.5,35.78,11111222 
ENP,ioos.station.NOAA.NDBC:BWSF1:1,2019-11-05T05:00:00Z,25.1780,-80.4380,1.5,35.82,11111222 
ENP,ioos.station.NOAA.NDBC:BWSF1:1,2019-11-05T07:00:00Z,25.1780,-80.4380,1.5,36.08,11111222 
ENP,ioos.station.NOAA.NDBC:BWSF1:1,2019-11-05T08:00:00Z,25.1780,-80.4380,1.5,36.05,11111222 
ENP,ioos.station.NOAA.NDBC:BWSF1:1,2019-11-05T09:00:00Z,25.1780,-80.4380,1.5,36.04,11111222 
ENP,ioos.station.NOAA.NDBC:BWSF1:1,2019-11-05T10:00:00Z,25.1780,-80.4380,1.5,36.06,11111222 
ENP,ioos.station.NOAA.NDBC:BWSF1:1,2019-11-05T11:00:00Z,25.1780,-80.4380,1.5,36.04,11111222 
ENP,ioos.station.NOAA.NDBC:BWSF1:1,2019-11-05T12:00:00Z,25.1780,-80.4380,1.5,36.08,11111222 
ENP,ioos.station.NOAA.NDBC:BWSF1:1,2019-11-05T13:00:00Z,25.1780,-80.4380,1.5,36.1,11111222 
ENP,ioos.station.NOAA.NDBC:BWSF1:1,2019-11-05T14:00:00Z,25.1780,-80.4380,1.5,36.28,11111222 
ENP,ioos.station.NOAA.NDBC:BWSF1:1,2019-11-05T15:00:00Z,25.1780,-80.4380,1.5,36.35,11111222 
ENP,ioos.station.NOAA.NDBC:BWSF1:1,2019-11-05T16:00:00Z,25.1780,-80.4380,1.5,36.33,11111222 
ENP,ioos.station.NOAA.NDBC:BWSF1:1,2019-11-05T17:00:00Z,25.1780,-80.4380,1.5,36.34,11111222 
ENP,ioos.station.NOAA.NDBC:BWSF1:1,2019-11-05T18:00:00Z,25.1780,-80.4380,1.5,36.36,11111222 
ENP,ioos.station.NOAA.NDBC:BWSF1:1,2019-11-05T19:00:00Z,25.1780,-80.4380,1.5,36.4,11111222 
ENP,ioos.station.NOAA.NDBC:BWSF1:1,2019-11-05T20:00:00Z,25.1780,-80.4380,1.5,36.43,11111222 
ENP,ioos.station.NOAA.NDBC:BWSF1:1,2019-11-05T21:00:00Z,25.1780,-80.4380,1.5,36.43,11111222 
ENP,ioos.station.NOAA.NDBC:BWSF1:1,2019-11-05T22:00:00Z,25.1780,-80.4380,1.5,36.45,11111222 
ENP,ioos.station.NOAA.NDBC:BWSF1:1,2019-11-05T23:00:00Z,25.1780,-80.4380,1.5,36.45,11111222 
ENP,ioos.station.NOAA.NDBC:BWSF1:1,2019-11-06T00:00:00Z,25.1780,-80.4380,1.5,36.37,11111222 
ENP,ioos.station.NOAA.NDBC:BWSF1:1,2019-11-06T01:00:00Z,25.1780,-80.4380,1.5,36.27,11111222 
ENP,ioos.station.NOAA.NDBC:BWSF1:1,2019-11-06T02:00:00Z,25.1780,-80.4380,1.5,36.14,11111222 
ENP,ioos.station.NOAA.NDBC:BWSF1:1,2019-11-06T04:00:00Z,25.1780,-80.4380,1.5,36.01,11111222 
ENP,ioos.station.NOAA.NDBC:BWSF1:1,2019-11-06T05:00:00Z,25.1780,-80.4380,1.5,35.98,11111222 
ENP,ioos.station.NOAA.NDBC:BWSF1:1,2019-11-06T06:00:00Z,25.1780,-80.4380,1.5,35.9,11111222 
ENP,ioos.station.NOAA.NDBC:BWSF1:1,2019-11-06T07:00:00Z,25.1780,-80.4380,1.5,35.91,11111222 
ENP,ioos.station.NOAA.NDBC:BWSF1:1,2019-11-06T08:00:00Z,25.1780,-80.4380,1.5,35.85,11111222 
ENP,ioos.station.NOAA.NDBC:BWSF1:1,2019-11-06T09:00:00Z,25.1780,-80.4380,1.5,35.83,11111222 
ENP,ioos.station.NOAA.NDBC:BWSF1:1,2019-11-06T10:00:00Z,25.1780,-80.4380,1.5,35.74,11111222 
ENP,ioos.station.NOAA.NDBC:BWSF1:1,2019-11-06T11:00:00Z,25.1780,-80.4380,1.5,35.61,11111222 
ENP,ioos.station.NOAA.NDBC:BWSF1:1,2019-11-06T12:00:00Z,25.1780,-80.4380,1.5,35.5,11111222 
ENP,ioos.station.NOAA.NDBC:BWSF1:1,2019-11-06T13:00:00Z,25.1780,-80.4380,1.5,35.44,11111222 
ENP,ioos.station.NOAA.NDBC:BWSF1:1,2019-11-06T14:00:00Z,25.1780,-80.4380,1.5,35.4,11111222 
ENP,ioos.station.NOAA.NDBC:BWSF1:1,2019-11-06T15:00:00Z,25.1780,-80.4380,1.5,35.44,11111222 
ENP,ioos.station.NOAA.NDBC:BWSF1:1,2019-11-06T16:00:00Z,25.1780,-80.4380,1.5,35.46,11111222 
ENP,ioos.station.NOAA.NDBC:BWSF1:1,2019-11-06T17:00:00Z,25.1780,-80.4380,1.5,35.51,11111222 
ENP,ioos.station.NOAA.NDBC:BWSF1:1,2019-11-06T18:00:00Z,25.1780,-80.4380,1.5,35.57,11111222 
ENP,ioos.station.NOAA.NDBC:BWSF1:1,2019-11-06T19:00:00Z,25.1780,-80.4380,1.5,35.6,11111222 
ENP,ioos.station.NOAA.NDBC:BWSF1:1,2019-11-06T20:00:00Z,25.1780,-80.4380,1.5,35.6,11111222 
ENP,ioos.station.NOAA.NDBC:BWSF1:1,2019-11-06T21:00:00Z,25.1780,-80.4380,1.5,35.63,11111222 
ENP,ioos.station.NOAA.NDBC:BWSF1:1,2019-11-06T22:00:00Z,25.1780,-80.4380,1.5,35.6,11111222 
ENP,ioos.station.NOAA.NDBC:BWSF1:1,2019-11-06T23:00:00Z,25.1780,-80.4380,1.5,35.64,11111222 
ENP,ioos.station.NOAA.NDBC:BWSF1:1,2019-11-07T00:00:00Z,25.1780,-80.4380,1.5,35.94,11111222 
ENP,ioos.station.NOAA.NDBC:BWSF1:1,2019-11-07T01:00:00Z,25.1780,-80.4380,1.5,36.2,11111222 
ENP,ioos.station.NOAA.NDBC:BWSF1:1,2019-11-07T02:00:00Z,25.1780,-80.4380,1.5,36.28,11111222 
ENP,ioos.station.NOAA.NDBC:BWSF1:1,2019-11-07T04:00:00Z,25.1780,-80.4380,1.5,36.11,11111222 
ENP,ioos.station.NOAA.NDBC:BWSF1:1,2019-11-07T05:00:00Z,25.1780,-80.4380,1.5,36.22,11111222 
ENP,ioos.station.NOAA.NDBC:BWSF1:1,2019-11-07T06:00:00Z,25.1780,-80.4380,1.5,36.54,11111222 
ENP,ioos.station.NOAA.NDBC:BWSF1:1,2019-11-07T07:00:00Z,25.1780,-80.4380,1.5,36.78,11111222 
ENP,ioos.station.NOAA.NDBC:BWSF1:1,2019-11-07T08:00:00Z,25.1780,-80.4380,1.5,36.71,11111222 
ENP,ioos.station.NOAA.NDBC:BWSF1:1,2019-11-07T09:00:00Z,25.1780,-80.4380,1.5,36.61,11111222 
ENP,ioos.station.NOAA.NDBC:BWSF1:1,2019-11-07T10:00:00Z,25.1780,-80.4380,1.5,36.51,11111222 
ENP,ioos.station.NOAA.NDBC:BWSF1:1,2019-11-07T11:00:00Z,25.1780,-80.4380,1.5,36.51,11111222 
ENP,ioos.station.NOAA.NDBC:BWSF1:1,2019-11-07T12:00:00Z,25.1780,-80.4380,1.5,36.53,11111222 
ENP,ioos.station.NOAA.NDBC:BWSF1:1,2019-11-07T13:00:00Z,25.1780,-80.4380,1.5,36.6,11111222 
ENP,ioos.station.NOAA.NDBC:BWSF1:1,2019-11-07T14:00:00Z,25.1780,-80.4380,1.5,36.57,11111222 
ENP,ioos.station.NOAA.NDBC:BWSF1:1,2019-11-07T15:00:00Z,25.1780,-80.4380,1.5,36.53,11111222 
ENP,ioos.station.NOAA.NDBC:BWSF1:1,2019-11-07T16:00:00Z,25.1780,-80.4380,1.5,36.46,11111222 
ENP,ioos.station.NOAA.NDBC:BWSF1:1,2019-11-07T17:00:00Z,25.1780,-80.4380,1.5,36.34,11111222 
ENP,ioos.station.NOAA.NDBC:BWSF1:1,2019-11-07T18:00:00Z,25.1780,-80.4380,1.5,36.25,11111222 
ENP,ioos.station.NOAA.NDBC:BWSF1:1,2019-11-07T19:00:00Z,25.1780,-80.4380,1.5,36.22,11111222 
ENP,ioos.station.NOAA.NDBC:BWSF1:1,2019-11-07T20:00:00Z,25.1780,-80.4380,1.5,36.23,11111222 
ENP,ioos.station.NOAA.NDBC:BWSF1:1,2019-11-07T21:00:00Z,25.1780,-80.4380,1.5,36.17,11111222 
ENP,ioos.station.NOAA.NDBC:BWSF1:1,2019-11-07T22:00:00Z,25.1780,-80.4380,1.5,36.14,11111222 
ENP,ioos.station.NOAA.NDBC:BWSF1:1,2019-11-07T23:00:00Z,25.1780,-80.4380,1.5,36.11,11111222 
ENP,ioos.station.NOAA.NDBC:BWSF1:1,2019-11-08T00:00:00Z,25.1780,-80.4380,1.5,36.12,11111222 
ENP,ioos.station.NOAA.NDBC:BWSF1:1,2019-11-08T02:00:00Z,25.1780,-80.4380,1.5,36.13,11111222 
ENP,ioos.station.NOAA.NDBC:BWSF1:1,2019-11-08T04:00:00Z,25.1780,-80.4380,1.5,36.14,11111222 
ENP,ioos.station.NOAA.NDBC:BWSF1:1,2019-11-08T05:00:00Z,25.1780,-80.4380,1.5,36.14,11111222 
ENP,ioos.station.NOAA.NDBC:BWSF1:1,2019-11-08T06:00:00Z,25.1780,-80.4380,1.5,36.13,11111222 
ENP,ioos.station.NOAA.NDBC:BWSF1:1,2019-11-08T07:00:00Z,25.1780,-80.4380,1.5,36.13,11111222 
ENP,ioos.station.NOAA.NDBC:BWSF1:1,2019-11-08T08:00:00Z,25.1780,-80.4380,1.5,36.11,11111222 
ENP,ioos.station.NOAA.NDBC:BWSF1:1,2019-11-08T09:00:00Z,25.1780,-80.4380,1.5,36.11,11111222 
ENP,ioos.station.NOAA.NDBC:BWSF1:1,2019-11-08T10:00:00Z,25.1780,-80.4380,1.5,36.11,11111222 
ENP,ioos.station.NOAA.NDBC:BWSF1:1,2019-11-08T11:00:00Z,25.1780,-80.4380,1.5,36.13,11111222 
ENP,ioos.station.NOAA.NDBC:BWSF1:1,2019-11-08T13:00:00Z,25.1780,-80.4380,1.5,36.28,11111222 
ENP,ioos.station.NOAA.NDBC:BWSF1:1,2019-11-08T14:00:00Z,25.1780,-80.4380,1.5,36.36,11111222 
ENP,ioos.station.NOAA.NDBC:BWSF1:1,2019-11-08T16:00:00Z,25.1780,-80.4380,1.5,36.52,11111222 
ENP,ioos.station.NOAA.NDBC:BWSF1:1,2019-11-08T17:00:00Z,25.1780,-80.4380,1.5,36.63,11111222 
ENP,ioos.station.NOAA.NDBC:BWSF1:1,2019-11-08T18:00:00Z,25.1780,-80.4380,1.5,36.7,11111222 
ENP,ioos.station.NOAA.NDBC:BWSF1:1,2019-11-08T19:00:00Z,25.1780,-80.4380,1.5,36.76,11111222 
ENP,ioos.station.NOAA.NDBC:BWSF1:1,2019-11-08T20:00:00Z,25.1780,-80.4380,1.5,36.77,11111222 
ENP,ioos.station.NOAA.NDBC:BWSF1:1,2019-11-08T21:00:00Z,25.1780,-80.4380,1.5,36.44,11111222 
ENP,ioos.station.NOAA.NDBC:BWSF1:1,2019-11-08T22:00:00Z,25.1780,-80.4380,1.5,36.21,11111222 
ENP,ioos.station.NOAA.NDBC:BWSF1:1,2019-11-08T23:00:00Z,25.1780,-80.4380,1.5,36.14,11111222 
ENP,ioos.station.NOAA.NDBC:BWSF1:1,2019-11-09T01:00:00Z,25.1780,-80.4380,1.5,36.06,11111222 
ENP,ioos.station.NOAA.NDBC:BWSF1:1,2019-11-09T02:00:00Z,25.1780,-80.4380,1.5,36.17,11111222 
ENP,ioos.station.NOAA.NDBC:BWSF1:1,2019-11-09T04:00:00Z,25.1780,-80.4380,1.5,36.37,11111222 
ENP,ioos.station.NOAA.NDBC:BWSF1:1,2019-11-09T05:00:00Z,25.1780,-80.4380,1.5,36.51,11111222 
ENP,ioos.station.NOAA.NDBC:BWSF1:1,2019-11-09T06:00:00Z,25.1780,-80.4380,1.5,36.57,11111222 
ENP,ioos.station.NOAA.NDBC:BWSF1:1,2019-11-09T07:00:00Z,25.1780,-80.4380,1.5,36.66,11111222 
ENP,ioos.station.NOAA.NDBC:BWSF1:1,2019-11-09T08:00:00Z,25.1780,-80.4380,1.5,36.69,11111222 
ENP,ioos.station.NOAA.NDBC:BWSF1:1,2019-11-09T09:00:00Z,25.1780,-80.4380,1.5,36.71,11111222 
ENP,ioos.station.NOAA.NDBC:BWSF1:1,2019-11-09T10:00:00Z,25.1780,-80.4380,1.5,36.7,11111222 
ENP,ioos.station.NOAA.NDBC:BWSF1:1,2019-11-09T11:00:00Z,25.1780,-80.4380,1.5,36.76,11111222 
ENP,ioos.station.NOAA.NDBC:BWSF1:1,2019-11-09T12:00:00Z,25.1780,-80.4380,1.5,36.79,11111222 
ENP,ioos.station.NOAA.NDBC:BWSF1:1,2019-11-09T13:00:00Z,25.1780,-80.4380,1.5,36.82,11111222 
ENP,ioos.station.NOAA.NDBC:BWSF1:1,2019-11-09T14:00:00Z,25.1780,-80.4380,1.5,36.86,11111222 
ENP,ioos.station.NOAA.NDBC:BWSF1:1,2019-11-09T15:00:00Z,25.1780,-80.4380,1.5,36.93,11111222 
ENP,ioos.station.NOAA.NDBC:BWSF1:1,2019-11-09T16:00:00Z,25.1780,-80.4380,1.5,37.03,11111222 
ENP,ioos.station.NOAA.NDBC:BWSF1:1,2019-11-09T17:00:00Z,25.1780,-80.4380,1.5,37.04,11111222 
ENP,ioos.station.NOAA.NDBC:BWSF1:1,2019-11-09T18:00:00Z,25.1780,-80.4380,1.5,37.11,11111222 
ENP,ioos.station.NOAA.NDBC:BWSF1:1,2019-11-09T19:00:00Z,25.1780,-80.4380,1.5,37.41,11111222 
ENP,ioos.station.NOAA.NDBC:BWSF1:1,2019-11-09T20:00:00Z,25.1780,-80.4380,1.5,37.45,11111222 
ENP,ioos.station.NOAA.NDBC:BWSF1:1,2019-11-09T21:00:00Z,25.1780,-80.4380,1.5,37.41,11111222 
ENP,ioos.station.NOAA.NDBC:BWSF1:1,2019-11-09T22:00:00Z,25.1780,-80.4380,1.5,37.39,11111222 
ENP,ioos.station.NOAA.NDBC:BWSF1:1,2019-11-09T23:00:00Z,25.1780,-80.4380,1.5,37.36,11111222 
ENP,ioos.station.NOAA.NDBC:BWSF1:1,2019-11-10T01:00:00Z,25.1780,-80.4380,1.5,37.37,11111222 
ENP,ioos.station.NOAA.NDBC:BWSF1:1,2019-11-10T02:00:00Z,25.1780,-80.4380,1.5,37.38,11111222 
ENP,ioos.station.NOAA.NDBC:BWSF1:1,2019-11-10T04:00:00Z,25.1780,-80.4380,1.5,37.21,11111222 
ENP,ioos.station.NOAA.NDBC:BWSF1:1,2019-11-10T05:00:00Z,25.1780,-80.4380,1.5,37.12,11111222 
ENP,ioos.station.NOAA.NDBC:BWSF1:1,2019-11-10T06:00:00Z,25.1780,-80.4380,1.5,36.91,11111222 
ENP,ioos.station.NOAA.NDBC:BWSF1:1,2019-11-10T07:00:00Z,25.1780,-80.4380,1.5,36.8,11111222 
ENP,ioos.station.NOAA.NDBC:BWSF1:1,2019-11-10T08:00:00Z,25.1780,-80.4380,1.5,36.87,11111222 
ENP,ioos.station.NOAA.NDBC:BWSF1:1,2019-11-10T09:00:00Z,25.1780,-80.4380,1.5,36.93,11111222 
ENP,ioos.station.NOAA.NDBC:BWSF1:1,2019-11-10T10:00:00Z,25.1780,-80.4380,1.5,36.89,11111222 
ENP,ioos.station.NOAA.NDBC:BWSF1:1,2019-11-10T11:00:00Z,25.1780,-80.4380,1.5,36.91,11111222 
ENP,ioos.station.NOAA.NDBC:BWSF1:1,2019-11-10T12:00:00Z,25.1780,-80.4380,1.5,36.95,11111222 
ENP,ioos.station.NOAA.NDBC:BWSF1:1,2019-11-10T13:00:00Z,25.1780,-80.4380,1.5,36.9,11111222 
ENP,ioos.station.NOAA.NDBC:BWSF1:1,2019-11-10T14:00:00Z,25.1780,-80.4380,1.5,36.59,11111222 
ENP,ioos.station.NOAA.NDBC:BWSF1:1,2019-11-10T15:00:00Z,25.1780,-80.4380,1.5,36.48,11111222 
ENP,ioos.station.NOAA.NDBC:BWSF1:1,2019-11-10T16:00:00Z,25.1780,-80.4380,1.5,36.31,11111222 
ENP,ioos.station.NOAA.NDBC:BWSF1:1,2019-11-10T17:00:00Z,25.1780,-80.4380,1.5,36.21,11111222 
ENP,ioos.station.NOAA.NDBC:BWSF1:1,2019-11-10T18:00:00Z,25.1780,-80.4380,1.5,36.08,11111222 
ENP,ioos.station.NOAA.NDBC:BWSF1:1,2019-11-10T19:00:00Z,25.1780,-80.4380,1.5,36.05,11111222 
ENP,ioos.station.NOAA.NDBC:BWSF1:1,2019-11-10T20:00:00Z,25.1780,-80.4380,1.5,36.02,11111222 
ENP,ioos.station.NOAA.NDBC:BWSF1:1,2019-11-10T21:00:00Z,25.1780,-80.4380,1.5,36.02,11111222 
ENP,ioos.station.NOAA.NDBC:BWSF1:1,2019-11-11T01:00:00Z,25.1780,-80.4380,1.5,35.97,11111222 
ENP,ioos.station.NOAA.NDBC:BWSF1:1,2019-11-11T04:00:00Z,25.1780,-80.4380,1.5,35.89,11111222 
ENP,ioos.station.NOAA.NDBC:BWSF1:1,2019-11-11T13:00:00Z,25.1780,-80.4380,1.5,36.03,11111222 
ENP,ioos.station.NOAA.NDBC:BWSF1:1,2019-11-11T16:00:00Z,25.1780,-80.4380,1.5,36.96,11111222 
ENP,ioos.station.NOAA.NDBC:BWSF1:1,2019-11-11T17:00:00Z,25.1780,-80.4380,1.5,36.81,11111222 
ENP,ioos.station.NOAA.NDBC:BWSF1:1,2019-11-11T18:00:00Z,25.1780,-80.4380,1.5,36.8,11111222 
ENP,ioos.station.NOAA.NDBC:BWSF1:1,2019-11-11T19:00:00Z,25.1780,-80.4380,1.5,36.83,11111222 
ENP,ioos.station.NOAA.NDBC:BWSF1:1,2019-11-11T20:00:00Z,25.1780,-80.4380,1.5,36.98,11111222 
ENP,ioos.station.NOAA.NDBC:BWSF1:1,2019-11-11T21:00:00Z,25.1780,-80.4380,1.5,36.86,11111222 
ENP,ioos.station.NOAA.NDBC:BWSF1:1,2019-11-11T22:00:00Z,25.1780,-80.4380,1.5,36.6,11111222 
ENP,ioos.station.NOAA.NDBC:BWSF1:1,2019-11-11T23:00:00Z,25.1780,-80.4380,1.5,36.63,11111222 
ENP,ioos.station.NOAA.NDBC:BWSF1:1,2019-11-12T00:00:00Z,25.1780,-80.4380,1.5,36.99,11111222 
ENP,ioos.station.NOAA.NDBC:BWSF1:1,2019-11-12T01:00:00Z,25.1780,-80.4380,1.5,37.1,11111222 
ENP,ioos.station.NOAA.NDBC:BWSF1:1,2019-11-12T02:00:00Z,25.1780,-80.4380,1.5,36.99,11111222 
ENP,ioos.station.NOAA.NDBC:BWSF1:1,2019-11-12T04:00:00Z,25.1780,-80.4380,1.5,37.21,11111222 
ENP,ioos.station.NOAA.NDBC:BWSF1:1,2019-11-12T05:00:00Z,25.1780,-80.4380,1.5,37.24,11111222 
ENP,ioos.station.NOAA.NDBC:BWSF1:1,2019-11-12T06:00:00Z,25.1780,-80.4380,1.5,37.28,11111222 
ENP,ioos.station.NOAA.NDBC:BWSF1:1,2019-11-12T07:00:00Z,25.1780,-80.4380,1.5,37.34,11111222 
ENP,ioos.station.NOAA.NDBC:BWSF1:1,2019-11-12T08:00:00Z,25.1780,-80.4380,1.5,37.43,11111222 
ENP,ioos.station.NOAA.NDBC:BWSF1:1,2019-11-12T09:00:00Z,25.1780,-80.4380,1.5,37.51,11111222 
ENP,ioos.station.NOAA.NDBC:BWSF1:1,2019-11-12T10:00:00Z,25.1780,-80.4380,1.5,37.46,11111222 
ENP,ioos.station.NOAA.NDBC:BWSF1:1,2019-11-12T11:00:00Z,25.1780,-80.4380,1.5,37.47,11111222 
ENP,ioos.station.NOAA.NDBC:BWSF1:1,2019-11-12T13:00:00Z,25.1780,-80.4380,1.5,37.47,11111222 
ENP,ioos.station.NOAA.NDBC:BWSF1:1,2019-11-12T14:00:00Z,25.1780,-80.4380,1.5,37.49,11111222 
ENP,ioos.station.NOAA.NDBC:BWSF1:1,2019-11-12T15:00:00Z,25.1780,-80.4380,1.5,37.46,11111222 
ENP,ioos.station.NOAA.NDBC:BWSF1:1,2019-11-12T16:00:00Z,25.1780,-80.4380,1.5,37.47,11111222 
ENP,ioos.station.NOAA.NDBC:BWSF1:1,2019-11-12T17:00:00Z,25.1780,-80.4380,1.5,37.48,11111222 
ENP,ioos.station.NOAA.NDBC:BWSF1:1,2019-11-12T18:00:00Z,25.1780,-80.4380,1.5,37.48,11111222 
ENP,ioos.station.NOAA.NDBC:BWSF1:1,2019-11-12T19:00:00Z,25.1780,-80.4380,1.5,37.47,11111222 
ENP,ioos.station.NOAA.NDBC:BWSF1:1,2019-11-12T20:00:00Z,25.1780,-80.4380,1.5,37.44,11111222 
ENP,ioos.station.NOAA.NDBC:BWSF1:1,2019-11-12T21:00:00Z,25.1780,-80.4380,1.5,37.3,11111222 
ENP,ioos.station.NOAA.NDBC:BWSF1:1,2019-11-12T22:00:00Z,25.1780,-80.4380,1.5,37.17,11111222 
ENP,ioos.station.NOAA.NDBC:BWSF1:1,2019-11-13T00:00:00Z,25.1780,-80.4380,1.5,37.09,11111222 
ENP,ioos.station.NOAA.NDBC:BWSF1:1,2019-11-13T01:00:00Z,25.1780,-80.4380,1.5,37.09,11111222 
ENP,ioos.station.NOAA.NDBC:BWSF1:1,2019-11-13T02:00:00Z,25.1780,-80.4380,1.5,37.12,11111222 
ENP,ioos.station.NOAA.NDBC:BWSF1:1,2019-11-13T04:00:00Z,25.1780,-80.4380,1.5,37.13,11111222 
ENP,ioos.station.NOAA.NDBC:BWSF1:1,2019-11-13T05:00:00Z,25.1780,-80.4380,1.5,37.15,11111222 
ENP,ioos.station.NOAA.NDBC:BWSF1:1,2019-11-13T06:00:00Z,25.1780,-80.4380,1.5,37.2,11111222 
ENP,ioos.station.NOAA.NDBC:BWSF1:1,2019-11-13T07:00:00Z,25.1780,-80.4380,1.5,37.22,11111222 
ENP,ioos.station.NOAA.NDBC:BWSF1:1,2019-11-13T08:00:00Z,25.1780,-80.4380,1.5,37.23,11111222 
ENP,ioos.station.NOAA.NDBC:BWSF1:1,2019-11-13T09:00:00Z,25.1780,-80.4380,1.5,37.3,11111222 
ENP,ioos.station.NOAA.NDBC:BWSF1:1,2019-11-13T10:00:00Z,25.1780,-80.4380,1.5,37.32,11111222 
ENP,ioos.station.NOAA.NDBC:BWSF1:1,2019-11-13T11:00:00Z,25.1780,-80.4380,1.5,37.33,11111222 
ENP,ioos.station.NOAA.NDBC:BWSF1:1,2019-11-13T12:00:00Z,25.1780,-80.4380,1.5,37.35,11111222 
ENP,ioos.station.NOAA.NDBC:BWSF1:1,2019-11-13T13:00:00Z,25.1780,-80.4380,1.5,37.37,11111222 
ENP,ioos.station.NOAA.NDBC:BWSF1:1,2019-11-13T14:00:00Z,25.1780,-80.4380,1.5,37.38,11111222 
ENP,ioos.station.NOAA.NDBC:BWSF1:1,2019-11-13T16:00:00Z,25.1780,-80.4380,1.5,37.41,11111222 
ENP,ioos.station.NOAA.NDBC:BWSF1:1,2019-11-13T17:00:00Z,25.1780,-80.4380,1.5,37.42,11111222 
ENP,ioos.station.NOAA.NDBC:BWSF1:1,2019-11-13T18:00:00Z,25.1780,-80.4380,1.5,37.45,11111222 
ENP,ioos.station.NOAA.NDBC:BWSF1:1,2019-11-13T19:00:00Z,25.1780,-80.4380,1.5,37.47,11111222 
ENP,ioos.station.NOAA.NDBC:BWSF1:1,2019-11-13T20:00:00Z,25.1780,-80.4380,1.5,37.47,11111222 
ENP,ioos.station.NOAA.NDBC:BWSF1:1,2019-11-13T21:00:00Z,25.1780,-80.4380,1.5,37.48,11111222 
ENP,ioos.station.NOAA.NDBC:BWSF1:1,2019-11-13T22:00:00Z,25.1780,-80.4380,1.5,37.41,11111222 
ENP,ioos.station.NOAA.NDBC:BWSF1:1,2019-11-13T23:00:00Z,25.1780,-80.4380,1.5,37.36,11111222 